Location: Coupvray
(48.8929°N, 2.7967°E)
Time: 10:10:16
(UTC+00:00)

Cosmos 2173 Rocket - Pass Details

Date: 14 July 2020
Orbit: 944 x 1001 km, 83.0° (Epoch: 05 August)

Event Time Altitude Azimuth Distance (km) Brightness Sun altitude
Exits shadow 01:43:02 23° 206° (SSW) 1,997 5.0 -15.5°
Maximum altitude 01:47:10 65° 282° (WNW) 1,090 4.2 -15.2°
Drops below altitude 10° 01:53:27 10° 4° (N) 2,749 7.4 -14.7°
Sets 01:56:00 0° 8° (N) 3,693 8.4 -14.5°
